Hourly Weather Rudnikovyy

Today, 11 April, Sunday

Time Temperature Precipitation Wind Pressure Humidity
00:00 -1°C° 0 mm 4 mps 748 mmHg 97%
01:00 -1°C° 0 mm 4 mps 748 mmHg 98%
02:00 0°C° 0 mm 3 mps 748 mmHg 98%
03:00 0°C° 0 mm 3 mps 748 mmHg 98%
04:00 0°C° 0 mm 3 mps 748 mmHg 98%
05:00 -1°C° 0 mm 3 mps 749 mmHg 97%
06:00 -1°C° 0 mm 3 mps 749 mmHg 96%
07:00 -1°C° 0 mm 3 mps 749 mmHg 95%
08:00 0°C° 0 mm 3 mps 749 mmHg 94%
09:00 0°C° 0 mm 4 mps 749 mmHg 93%
10:00 +1°C° 0 mm 4 mps 749 mmHg 92%
11:00 +3°C° 0 mm 4 mps 749 mmHg 87%
12:00 +4°C° 0 mm 4 mps 749 mmHg 83%
13:00 +5°C° 0 mm 4 mps 749 mmHg 79%
14:00 +5°C° 0 mm 4 mps 749 mmHg 80%
15:00 +5°C° 0 mm 4 mps 748 mmHg 80%
16:00 +5°C° 0 mm 4 mps 748 mmHg 81%
17:00 +3°C° 0 mm 4 mps 748 mmHg 83%
18:00 +1°C° 0 mm 4 mps 748 mmHg 85%
19:00 0°C° 0 mm 4 mps 748 mmHg 86%
20:00 0°C° 0 mm 4 mps 748 mmHg 86%
21:00 -1°C° 0 mm 4 mps 748 mmHg 85%
22:00 0°C° 0 mm 3 mps 748 mmHg 84%
23:00 0°C° 0 mm 3 mps 748 mmHg 83%

Tomorrow, 12 April, Monday

Time Temperature Precipitation Wind Pressure Humidity
00:00 0°C° 0 mm 3 mps 748 mmHg 82%
01:00 0°C° 0 mm 3 mps 748 mmHg 81%
02:00 0°C° 0 mm 3 mps 748 mmHg 81%
03:00 0°C° 0 mm 3 mps 748 mmHg 80%
04:00 -1°C° 0 mm 3 mps 748 mmHg 80%
05:00 0°C° 0 mm 3 mps 748 mmHg 78%
06:00 0°C° 0 mm 3 mps 748 mmHg 76%
07:00 +1°C° 0 mm 3 mps 749 mmHg 74%
08:00 +2°C° 0 mm 3 mps 749 mmHg 67%
09:00 +4°C° 0 mm 4 mps 749 mmHg 61%
10:00 +6°C° 0 mm 4 mps 749 mmHg 54%
11:00 +7°C° 0 mm 4 mps 748 mmHg 53%
12:00 +8°C° 0 mm 4 mps 748 mmHg 51%
13:00 +10°C° 0 mm 4 mps 748 mmHg 49%
14:00 +10°C° 0 mm 4 mps 748 mmHg 52%
15:00 +10°C° 0 mm 4 mps 748 mmHg 54%
16:00 +9°C° 0 mm 5 mps 748 mmHg 56%
17:00 +7°C° 0 mm 4 mps 748 mmHg 61%
18:00 +5°C° 0 mm 4 mps 748 mmHg 66%
19:00 +3°C° 0 mm 4 mps 748 mmHg 71%
20:00 +1°C° 0 mm 4 mps 748 mmHg 69%
21:00 +1°C° 0 mm 4 mps 748 mmHg 68%
22:00 0°C° 0 mm 4 mps 748 mmHg 67%
23:00 0°C° 0 mm 4 mps 748 mmHg 69%

Day after tomorrow, 13 April, Tuesday

Time Temperature Precipitation Wind Pressure Humidity
00:00 0°C° 0 mm 4 mps 748 mmHg 71%
01:00 0°C° 0 mm 4 mps 748 mmHg 73%
02:00 0°C° 0 mm 4 mps 748 mmHg 71%
03:00 -1°C° 0 mm 4 mps 748 mmHg 69%
04:00 -1°C° 0 mm 4 mps 749 mmHg 68%
05:00 0°C° 0 mm 4 mps 749 mmHg 67%
06:00 +1°C° 0 mm 4 mps 749 mmHg 66%
07:00 +2°C° 0 mm 5 mps 749 mmHg 66%
08:00 +5°C° 0 mm 5 mps 749 mmHg 63%
09:00 +7°C° 0 mm 6 mps 749 mmHg 61%
10:00 +9°C° 0 mm 6 mps 749 mmHg 58%
11:00 +10°C° 0 mm 6 mps 749 mmHg 57%
12:00 +13°C° 0 mm 6 mps 749 mmHg 56%
13:00 +14°C° 0 mm 7 mps 748 mmHg 55%
14:00 +14°C° 0 mm 7 mps 748 mmHg 59%
15:00 +14°C° 0 mm 7 mps 748 mmHg 62%
16:00 +14°C° 0 mm 7 mps 748 mmHg 66%
17:00 +11°C° 0 mm 7 mps 748 mmHg 73%
18:00 +10°C° 0 mm 6 mps 748 mmHg 80%
19:00 +8°C° 0 mm 5 mps 748 mmHg 88%
20:00 +8°C° 0 mm 5 mps 747 mmHg 87%
21:00 +7°C° 0 mm 5 mps 747 mmHg 87%
22:00 +6°C° 0 mm 4 mps 747 mmHg 87%
23:00 +6°C° 0 mm 4 mps 747 mmHg 88%

14 April, Wednesday

Time Temperature Precipitation Wind Pressure Humidity
00:00 +6°C° 0 mm 4 mps 746 mmHg 90%
01:00 +5°C° 0 mm 4 mps 746 mmHg 91%
02:00 +5°C° 0 mm 4 mps 746 mmHg 91%
03:00 +5°C° 0 mm 4 mps 746 mmHg 91%
04:00 +4°C° 0 mm 4 mps 746 mmHg 91%
05:00 +5°C° 0 mm 4 mps 746 mmHg 87%
06:00 +5°C° 0 mm 5 mps 745 mmHg 83%
07:00 +5°C° 0 mm 5 mps 745 mmHg 79%
08:00 +7°C° 0 mm 5 mps 745 mmHg 71%
09:00 +9°C° 0 mm 6 mps 745 mmHg 62%
10:00 +10°C° 0 mm 6 mps 745 mmHg 54%
11:00 +13°C° 0 mm 6 mps 744 mmHg 51%
12:00 +14°C° 0 mm 6 mps 744 mmHg 48%
13:00 +15°C° 0 mm 6 mps 743 mmHg 46%
14:00 +15°C° 0 mm 6 mps 743 mmHg 46%
15:00 +15°C° 0 mm 6 mps 742 mmHg 46%
16:00 +16°C° 0 mm 6 mps 742 mmHg 45%
17:00 +14°C° 0 mm 6 mps 741 mmHg 50%
18:00 +13°C° 0 mm 5 mps 741 mmHg 55%
19:00 +12°C° 0 mm 4 mps 741 mmHg 59%
20:00 +11°C° 0 mm 4 mps 741 mmHg 62%
21:00 +10°C° 0 mm 4 mps 741 mmHg 64%
22:00 +8°C° 0 mm 4 mps 741 mmHg 66%
23:00 +7°C° 0 mm 4 mps 740 mmHg 65%

15 April, Thursday

Time Temperature Precipitation Wind Pressure Humidity
00:00 +7°C° 0 mm 4 mps 740 mmHg 64%
01:00 +6°C° 0 mm 4 mps 740 mmHg 64%
02:00 +6°C° 0 mm 4 mps 739 mmHg 64%
03:00 +5°C° 0 mm 4 mps 739 mmHg 65%
04:00 +5°C° 0 mm 4 mps 739 mmHg 66%
05:00 +5°C° 0 mm 4 mps 739 mmHg 65%
06:00 +6°C° 0 mm 4 mps 739 mmHg 63%
07:00 +6°C° 0 mm 4 mps 739 mmHg 62%
08:00 +8°C° 0 mm 5 mps 738 mmHg 54%
09:00 +10°C° 0 mm 5 mps 738 mmHg 47%
10:00 +13°C° 0 mm 6 mps 738 mmHg 39%
11:00 +15°C° 0 mm 6 mps 738 mmHg 36%
12:00 +16°C° 0 mm 6 mps 737 mmHg 33%
13:00 +17°C° 0 mm 6 mps 737 mmHg 31%
14:00 +19°C° 0 mm 6 mps 737 mmHg 30%
15:00 +19°C° 0 mm 6 mps 736 mmHg 29%
16:00 +19°C° 0 mm 6 mps 736 mmHg 28%
17:00 +17°C° 0 mm 5 mps 736 mmHg 34%
18:00 +15°C° 0 mm 4 mps 735 mmHg 40%
19:00 +13°C° 0 mm 4 mps 735 mmHg 46%
20:00 +13°C° 0 mm 4 mps 735 mmHg 49%
21:00 +12°C° 0 mm 4 mps 735 mmHg 52%
22:00 +11°C° 0 mm 4 mps 735 mmHg 55%
23:00 +10°C° 0 mm 4 mps 734 mmHg 56%

16 April, Friday

Time Temperature Precipitation Wind Pressure Humidity
00:00 +8°C° 0 mm 4 mps 734 mmHg 58%
01:00 +8°C° 0 mm 4 mps 733 mmHg 59%
02:00 +7°C° 0 mm 4 mps 733 mmHg 60%
03:00 +6°C° 0 mm 4 mps 733 mmHg 62%
04:00 +7°C° 0 mm 3 mps 733 mmHg 63%
05:00 +8°C° 0 mm 3 mps 733 mmHg 62%
06:00 +8°C° 0 mm 3 mps 732 mmHg 61%
07:00 +9°C° 0 mm 3 mps 732 mmHg 59%
08:00 +11°C° 0 mm 3 mps 732 mmHg 52%
09:00 +13°C° 0 mm 3 mps 732 mmHg 45%
10:00 +16°C° 0 mm 3 mps 731 mmHg 37%
11:00 +17°C° 0 mm 3 mps 731 mmHg 34%
12:00 +18°C° 0 mm 3 mps 731 mmHg 30%
13:00 +19°C° 0 mm 3 mps 731 mmHg 27%
14:00 +19°C° 0 mm 3 mps 730 mmHg 26%
15:00 +19°C° 0 mm 3 mps 730 mmHg 26%
16:00 +19°C° 0 mm 4 mps 730 mmHg 25%
17:00 +18°C° 0 mm 3 mps 730 mmHg 31%
18:00 +16°C° 0 mm 3 mps 729 mmHg 37%
19:00 +14°C° 0 mm 3 mps 729 mmHg 42%
20:00 +13°C° 0 mm 3 mps 729 mmHg 45%
21:00 +13°C° 0 mm 3 mps 729 mmHg 47%
22:00 +12°C° 0 mm 3 mps 729 mmHg 49%
23:00 +11°C° 0 mm 3 mps 729 mmHg 52%
Show more